KM4RT-13 Weather Reports


Display with metric or nautical units.
time (UTC)temp
F
wind
direction
speed
MPH
gust
MPH
rain 1hr
in
rain 24hr
in
rain mn
in
humidity
%
barometer
mb
20260504192018 79 255 8.0 9.0 0.00 0.00 0.00 43 1008.7
20260504191516 78 233 14.0 16.0 0.00 0.00 0.00 44 1008.6
20260504191012 78 214 13.0 15.0 0.00 0.00 0.00 43 1008.6
20260504190508 78 173 14.0 19.0 0.00 0.00 0.00 43 1008.8
20260504190004 78 239 15.0 19.0 0.00 0.00 0.00 43 1008.8
20260504185501 78 184 11.0 13.0 0.00 0.00 0.00 44 1009.0
20260504184958 79 196 15.0 19.0 0.00 0.00 0.00 42 1008.9
20260504184453 78 241 7.0 11.0 0.00 0.00 0.00 45 1009.2
20260504183949 78 210 17.0 18.0 0.00 0.00 0.00 43 1009.0
20260504183446 78 204 13.0 16.0 0.00 0.00 0.00 43 1009.2
20260504182944 78 247 16.0 19.0 0.00 0.00 0.00 43 1009.2
20260504182441 77 206 15.0 18.0 0.00 0.00 0.00 45 1009.5
20260504181938 77 224 14.0 19.0 0.00 0.00 0.00 46 1009.4
20260504181435 77 220 7.0 10.0 0.00 0.00 0.00 47 1009.4
20260504180934 77 196 11.0 13.0 0.00 0.00 0.00 46 1009.4
20260504180432 77 228 9.0 10.0 0.00 0.00 0.00 47 1009.5
20260504175930 77 208 17.0 19.0 0.00 0.00 0.00 46 1009.8
20260504175427 77 187 9.0 10.0 0.00 0.00 0.00 46 1009.7
20260504174925 77 224 13.0 16.0 0.00 0.00 0.00 45 1009.9
20260504174422 77 199 12.0 14.0 0.00 0.00 0.00 47 1009.9
20260504173919 77 262 4.0 7.0 0.00 0.00 0.00 49 1009.8
20260504173416 76 279 6.0 9.0 0.00 0.00 0.00 47 1009.8
20260504172913 76 277 13.0 17.0 0.00 0.00 0.00 48 1010.0
20260504172409 76 209 9.0 13.0 0.00 0.00 0.00 48 1010.1
20260504171905 76 241 6.0 9.0 0.00 0.00 0.00 52 1010.1
20260504171403 77 320 9.0 14.0 0.00 0.00 0.00 48 1010.3
20260504170900 75 277 9.0 10.0 0.00 0.00 0.00 51 1010.5
20260504170356 75 230 12.0 17.0 0.00 0.00 0.00 51 1010.4
20260504160315 74 237 6.0 7.0 0.00 0.00 0.00 54 1011.0
20260504150739 72 202 5.0 6.0 0.00 0.00 0.00 61 1011.4
20260504150236 72 175 7.0 10.0 0.00 0.00 0.00 61 1011.3
20260504141206 68 204 7.0 9.0 0.00 0.00 0.00 68 1011.5
20260504140703 68 225 8.0 9.0 0.00 0.00 0.00 68 1011.7
20260504140158 68 253 7.0 9.0 0.00 0.00 0.00 69 1011.6
20260504130626 63 197 2.0 3.0 0.00 0.00 0.00 77 1011.5
20260504130123 62 200 3.0 3.0 0.00 0.00 0.00 77 1011.2
20260504110514 59 202 3.0 3.0 0.00 0.00 0.00 78 1010.6
20260504100431 59 217 4.0 6.0 0.00 0.00 0.00 76 1010.7
20260504081824 59 203 4.0 4.0 0.00 0.00 0.00 72 1011.1
20260504081321 59 205 4.0 4.0 0.00 0.00 0.00 71 1011.1
20260504080816 60 209 5.0 6.0 0.00 0.00 0.00 71 1011.0
20260504080314 59 210 5.0 6.0 0.00 0.00 0.00 71 1011.0
20260504070241 60 199 6.0 7.0 0.00 0.00 0.00 68 1011.5
20260504060202 60 235 5.0 6.0 0.00 0.00 0.00 67 1012.2
20260504050630 60 208 3.0 4.0 0.00 0.00 0.00 67 1012.4
20260504050127 59 192 1.0 2.0 0.00 0.00 0.00 68 1012.6
20260504045623 59 210 1.0 2.0 0.00 0.00 0.00 68 1012.4
20260504045118 59 227 1.0 1.0 0.00 0.00 0.00 68 1012.5
20260504044617 60 218 3.0 3.0 0.00 0.00 0.00 66 1012.4
20260504044113 59 245 3.0 3.0 0.00 0.00 0.00 67 1012.5
20260504043610 59 211 2.0 2.0 0.00 0.00 0.00 67 1012.5
20260504043108 60 226 2.0 2.0 0.00 0.00 0.00 67 1012.4
20260504042605 60 176 1.0 1.0 0.00 0.00 0.00 67 1012.6
20260504042101 60 203 2.0 2.0 0.00 0.00 0.00 65 1012.6
20260504041557 60 214 3.0 3.0 0.00 0.00 0.00 65 1012.5
20260504041054 60 196 3.0 3.0 0.00 0.00 0.00 64 1012.3
20260504040551 60 233 2.0 3.0 0.00 0.00 0.00 64 1012.5
20260504040047 60 207 1.0 1.0 0.00 0.00 0.00 65 1012.6
20260504035544 60 212 2.0 2.0 0.00 0.00 0.00 64 1012.5
20260504035040 60 222 2.0 2.0 0.00 0.00 0.00 64 1012.5
20260504034539 60 209 2.0 2.0 0.00 0.00 0.00 65 1012.6
20260504034035 60 210 2.0 2.0 0.00 0.00 0.00 64 1012.7
20260504033533 60 212 2.0 2.0 0.00 0.00 0.00 64 1012.9
20260504033030 60 201 1.0 1.0 0.00 0.00 0.00 64 1012.9
20260504032527 60 206 2.0 2.0 0.00 0.00 0.00 63 1012.8
20260504032024 60 190 1.0 2.0 0.00 0.00 0.00 64 1012.9
20260504031521 60 191 2.0 2.0 0.00 0.00 0.00 63 1012.9
20260504031017 61 206 2.0 2.0 0.00 0.00 0.00 62 1013.1
20260504030515 61 210 2.0 2.0 0.00 0.00 0.00 61 1012.9
20260504030011 61 200 2.0 2.0 0.00 0.00 0.00 61 1013.1
20260504025508 61 187 1.0 1.0 0.00 0.00 0.00 60 1013.0
20260504025005 61 187 1.0 1.0 0.00 0.00 0.00 60 1013.1
20260504024502 62 205 1.0 2.0 0.00 0.00 0.00 60 1012.9
20260504023959 62 200 2.0 2.0 0.00 0.00 0.00 58 1013.0
20260504023455 62 200 2.0 2.0 0.00 0.00 0.00 58 1013.1
20260504022951 62 199 1.0 1.0 0.00 0.00 0.00 57 1013.1
20260504022447 62 199 0.0 0.0 0.00 0.00 0.00 56 1012.8
20260504021944 62 199 0.0 0.0 0.00 0.00 0.00 56 1012.8
20260504021441 62 200 0.0 0.0 0.00 0.00 0.00 56 1012.8
20260504020938 63 199 0.0 0.0 0.00 0.00 0.00 56 1012.7
20260504020435 62 199 0.0 0.0 0.00 0.00 0.00 56 1012.7
20260504015932 62 199 0.0 0.0 0.00 0.00 0.00 59 1012.7
20260504015427 62 199 0.0 0.0 0.00 0.00 0.00 57 1012.8
20260504014923 64 199 0.0 0.0 0.00 0.00 0.00 53 1012.5
20260504014420 64 199 0.0 0.0 0.00 0.00 0.00 51 1012.6
20260504013917 64 199 0.0 0.0 0.00 0.00 0.00 52 1012.6
20260504013415 64 199 0.0 0.0 0.00 0.00 0.00 51 1012.7
20260504012911 64 178 0.0 0.0 0.00 0.00 0.00 52 1012.7
20260504012409 64 178 0.0 0.0 0.00 0.00 0.00 52 1012.5
20260504011906 64 178 0.0 0.0 0.00 0.00 0.00 53 1012.6
20260504011403 64 178 0.0 0.0 0.00 0.00 0.00 53 1012.5
20260504010859 65 178 0.0 0.0 0.00 0.00 0.00 51 1012.9
20260504010354 66 178 0.0 0.0 0.00 0.00 0.00 50 1012.7
20260504005845 66 178 0.0 1.0 0.00 0.00 0.00 48 1012.5
20260504005342 67 178 1.0 1.0 0.00 0.00 0.00 47 1012.6
20260504004840 67 177 0.0 1.0 0.00 0.00 0.00 47 1012.6
20260504004337 68 177 1.0 1.0 0.00 0.00 0.00 46 1012.6
20260504003834 68 224 1.0 1.0 0.00 0.00 0.00 46 1012.8
20260504003331 69 206 1.0 1.0 0.00 0.00 0.00 45 1012.6
20260504002827 69 227 1.0 1.0 0.00 0.00 0.00 43 1012.6
20260504002324 70 204 2.0 2.0 0.00 0.00 0.00 43 1012.6
20260504001822 70 234 2.0 3.0 0.00 0.00 0.00 42 1012.6
20260504001319 70 201 4.0 6.0 0.00 0.00 0.00 41 1012.6
20260504000815 71 194 3.0 3.0 0.00 0.00 0.00 40 1012.7
20260504000313 71 232 4.0 4.0 0.00 0.00 0.00 41 1012.9
20260503235810 71 194 3.0 3.0 0.00 0.00 0.00 40 1012.8
20260503235308 71 218 4.0 4.0 0.00 0.00 0.00 39 1012.7
20260503234805 71 230 5.0 6.0 0.00 0.00 0.00 39 1012.7
20260503234303 71 232 4.0 4.0 0.00 0.00 0.00 39 1012.8
20260503233800 72 211 6.0 6.0 0.00 0.00 0.00 37 1012.8
20260503233255 72 237 6.0 7.0 0.00 0.00 0.00 37 1013.2
20260503232753 72 210 4.0 4.0 0.00 0.00 0.00 37 1012.8
20260503232250 72 237 5.0 7.0 0.00 0.00 0.00 38 1012.9
20260503231748 72 198 4.0 4.0 0.00 0.00 0.00 38 1013.2
20260503231245 72 207 8.0 9.0 0.00 0.00 0.00 36 1013.0
20260503230740 72 239 7.0 8.0 0.00 0.00 0.00 37 1013.2
20260503230238 72 215 7.0 8.0 0.00 0.00 0.00 36 1013.1
20260503225736 72 248 4.0 7.0 0.00 0.00 0.00 38 1013.1
20260503225236 72 239 4.0 4.0 0.00 0.00 0.00 39 1013.4
20260503224733 72 220 6.0 7.0 0.00 0.00 0.00 36 1013.2
20260503224231 72 237 5.0 7.0 0.00 0.00 0.00 37 1013.4
20260503223728 73 199 7.0 8.0 0.00 0.00 0.00 35 1013.5
20260503223225 73 220 4.0 6.0 0.00 0.00 0.00 35 1013.4
20260503222721 73 251 4.0 4.0 0.00 0.00 0.00 35 1013.5
20260503222219 72 255 6.0 8.0 0.00 0.00 0.00 36 1013.6
20260503221718 72 187 6.0 7.0 0.00 0.00 0.00 38 1013.6
20260503221215 72 187 7.0 8.0 0.00 0.00 0.00 36 1013.5
20260503220711 72 218 6.0 8.0 0.00 0.00 0.00 35 1013.8
20260503220208 73 191 2.0 2.0 0.00 0.00 0.00 34 1013.6
20260503215705 72 254 4.0 6.0 0.00 0.00 0.00 35 1013.9
20260503215202 72 207 8.0 9.0 0.00 0.00 0.00 36 1013.8
20260503214700 72 289 3.0 4.0 0.00 0.00 0.00 36 1014.0
20260503214155 72 279 4.0 4.0 0.00 0.00 0.00 35 1014.1
20260503213649 73 234 6.0 7.0 0.00 0.00 0.00 35 1014.2
20260503213146 73 306 4.0 6.0 0.00 0.00 0.00 35 1014.1
20260503212643 73 198 6.0 9.0 0.00 0.00 0.00 33 1014.2
20260503212141 73 267 3.0 4.0 0.00 0.00 0.00 34 1014.3
20260503211638 72 242 8.0 9.0 0.00 0.00 0.00 35 1014.6
20260503211133 72 234 7.0 8.0 0.00 0.00 0.00 34 1014.5
20260503210630 71 214 5.0 6.0 0.00 0.00 0.00 36 1014.6
20260503210127 72 237 10.0 13.0 0.00 0.00 0.00 35 1014.8
20260503205623 71 276 4.0 7.0 0.00 0.00 0.00 35 1015.0
20260503205119 72 220 9.0 9.0 0.00 0.00 0.00 35 1015.0
20260503204616 71 221 5.0 8.0 0.00 0.00 0.00 36 1014.9
20260503204113 72 209 11.0 15.0 0.00 0.00 0.00 35 1015.0
20260503203610 72 230 4.0 6.0 0.00 0.00 0.00 36 1015.1
20260503203108 73 265 4.0 7.0 0.00 0.00 0.00 35 1015.3
20260503202605 72 245 3.0 4.0 0.00 0.00 0.00 35 1015.3
20260503202103 71 201 3.0 3.0 0.00 0.00 0.00 36 1015.4
20260503201601 72 241 8.0 11.0 0.00 0.00 0.00 34 1015.6
20260503201057 71 261 5.0 6.0 0.00 0.00 0.00 37 1015.9
20260503200548 71 247 6.0 8.0 0.00 0.00 0.00 34 1015.6
20260503200045 71 232 7.0 8.0 0.00 0.00 0.00 38 1015.9
20260503195542 71 206 5.0 6.0 0.00 0.00 0.00 40 1015.8
20260503195039 71 217 11.0 13.0 0.00 0.00 0.00 39 1016.0
20260503194536 70 234 6.0 7.0 0.00 0.00 0.00 38 1016.2
20260503194036 70 229 9.0 11.0 0.00 0.00 0.00 36 1016.1
20260503193533 71 253 10.0 10.0 0.00 0.00 0.00 36 1016.1
20260503193028 71 197 4.0 4.0 0.00 0.00 0.00 37 1016.1
20260503192524 71 250 3.0 4.0 0.00 0.00 0.00 36 1016.3